Tracking 25612 objects as of 20-May-2022
HD Live streaming from Space Station
objects crossing your sky now

COSMOS 1867 COOLANT

Track COSMOS 1867 COOLANT now!
10-day predictions


NORAD ID: 39643
Int'l Code: 1987-060L
Perigee: 778.5 km
Apogee: 803.8 km
Inclination: 65.0 °
Period: 100.5 minutes
Semi major axis: 7162 km
RCS: Unknown
Launch date: July 10, 1987
Source: Commonwealth of Independent States (former USSR) (CIS)
Launch site: TYURATAM MISSILE AND SPACE COMPLEX (TTMTR)

Note: This is SATELLITE DEBRIS
aabbcc
Your satellite tracking list
Your tracking list is empty




NASA's NSSDC Master Catalog

Two Line Element Set (TLE):
1 39643U 87060L   22138.69562158  .00000404  00000-0  18624-3 0  9996
2 39643  65.0114 230.0096 0017661 259.6972 100.2122 14.32306389424136
Source of the keplerian elements: AFSPC